JAL689 RJTT-RJFM

Flight info

Callsign JAL689
Flight time 1h 34m
Altitude 36000
Route LAXAS Y56 TOHME Y54 RUPAP Y244 GREEN Y24 SUC Y402 RYUGU
Aircraft B738/M-SDE2E3FGHIRWXY/LB1

Departure

Time 2026-05-05 01:35
Airport Tokyo Haneda International Airport (RJTT)

Arrival

Time 2026-05-05 03:09
Airport Miyazaki Airport (RJFM)
Time Latitude Longitude Altitude Speed Heading
2026-05-05 01:15 35.54590 139.78481 30 ft 0 kts 90°
2026-05-05 01:20 35.54590 139.78479 30 ft 0 kts 90°
2026-05-05 01:21 35.54590 139.78473 29 ft 2 kts 90°
2026-05-05 01:21 35.54590 139.78455 29 ft 2 kts 90°
2026-05-05 01:21 35.54590 139.78435 28 ft 2 kts 90°
2026-05-05 01:21 35.54590 139.78416 27 ft 2 kts 90°
2026-05-05 01:22 35.54590 139.78400 27 ft 2 kts 90°
2026-05-05 01:22 35.54590 139.78380 26 ft 2 kts 90°
2026-05-05 01:22 35.54590 139.78361 25 ft 2 kts 90°
2026-05-05 01:22 35.54590 139.78343 24 ft 2 kts 90°
2026-05-05 01:23 35.54590 139.78325 24 ft 2 kts 90°
2026-05-05 01:23 35.54591 139.78307 23 ft 2 kts 104°
2026-05-05 01:23 35.54596 139.78290 22 ft 2 kts 122°
2026-05-05 01:23 35.54606 139.78276 22 ft 2 kts 141°
2026-05-05 01:24 35.54613 139.78270 22 ft 1 kts 151°
2026-05-05 01:24 35.54617 139.78267 22 ft 0 kts 150°
2026-05-05 01:26 35.54596 139.78282 22 ft 5 kts 148°
2026-05-05 01:26 35.54557 139.78311 22 ft 8 kts 150°
2026-05-05 01:26 35.54504 139.78348 23 ft 10 kts 150°
2026-05-05 01:26 35.54429 139.78403 23 ft 14 kts 150°
2026-05-05 01:27 35.54337 139.78467 24 ft 14 kts 150°
2026-05-05 01:27 35.54250 139.78528 27 ft 15 kts 149°
2026-05-05 01:27 35.54137 139.78609 29 ft 21 kts 150°
2026-05-05 01:27 35.53993 139.78709 30 ft 24 kts 150°
2026-05-05 01:28 35.53851 139.78812 31 ft 22 kts 149°
2026-05-05 01:28 35.53717 139.78906 30 ft 22 kts 150°
2026-05-05 01:28 35.53584 139.79001 29 ft 21 kts 149°
2026-05-05 01:28 35.53450 139.79094 24 ft 23 kts 150°
2026-05-05 01:29 35.53376 139.79253 21 ft 22 kts 73°
2026-05-05 01:29 35.53449 139.79416 20 ft 21 kts 60°
2026-05-05 01:29 35.53525 139.79576 17 ft 22 kts 60°
2026-05-05 01:29 35.53604 139.79742 13 ft 22 kts 59°
2026-05-05 01:30 35.53684 139.79910 12 ft 22 kts 59°
2026-05-05 01:30 35.53685 139.80039 9 ft 16 kts 142°
2026-05-05 01:30 35.53592 139.80107 9 ft 15 kts 150°
2026-05-05 01:30 35.53484 139.80183 9 ft 19 kts 150°
2026-05-05 01:31 35.53365 139.80269 9 ft 19 kts 150°
2026-05-05 01:31 35.53246 139.80353 9 ft 19 kts 150°
2026-05-05 01:31 35.53111 139.80447 9 ft 24 kts 150°
2026-05-05 01:31 35.52969 139.80519 9 ft 20 kts 194°
2026-05-05 01:32 35.52862 139.80415 9 ft 19 kts 223°
2026-05-05 01:32 35.52766 139.80309 9 ft 18 kts 224°
2026-05-05 01:32 35.52676 139.80206 9 ft 16 kts 223°
2026-05-05 01:32 35.52582 139.80147 9 ft 15 kts 162°
2026-05-05 01:33 35.52507 139.80229 9 ft 14 kts 133°
2026-05-05 01:33 35.52473 139.80275 9 ft 5 kts 133°
2026-05-05 01:33 35.52446 139.80310 9 ft 5 kts 136°
2026-05-05 01:33 35.52424 139.80344 9 ft 4 kts 101°
2026-05-05 01:34 35.52432 139.80376 9 ft 3 kts 53°
2026-05-05 01:34 35.52448 139.80397 9 ft 3 kts 42°
2026-05-05 01:34 35.52489 139.80443 9 ft 27 kts 43°
2026-05-05 01:34 35.52834 139.80829 9 ft 105 kts 43°
2026-05-05 01:35 35.53543 139.81633 11 ft 167 kts 40°
2026-05-05 01:35 35.54393 139.82645 647 ft 173 kts 43°
2026-05-05 01:35 35.55221 139.83670 1545 ft 171 kts 42°
2026-05-05 01:35 35.56115 139.84633 2126 ft 177 kts 42°
2026-05-05 01:36 35.56765 139.85974 2500 ft 199 kts 80°
2026-05-05 01:36 35.56538 139.87706 2945 ft 219 kts 110°
2026-05-05 01:36 35.55886 139.89481 3393 ft 238 kts 112°
2026-05-05 01:36 35.55180 139.91373 3915 ft 254 kts 117°
2026-05-05 01:37 35.54136 139.93175 4428 ft 270 kts 137°
2026-05-05 01:37 35.52499 139.94341 5068 ft 279 kts 165°
2026-05-05 01:37 35.50584 139.94649 5958 ft 276 kts 182°
2026-05-05 01:37 35.48691 139.94435 6760 ft 276 kts 191°
2026-05-05 01:38 35.46811 139.93951 7402 ft 283 kts 200°
2026-05-05 01:38 35.45054 139.92841 8081 ft 284 kts 222°
2026-05-05 01:38 35.43653 139.91187 8795 ft 285 kts 231°
2026-05-05 01:38 35.42306 139.89363 9463 ft 291 kts 232°
2026-05-05 01:39 35.40960 139.87527 10189 ft 294 kts 233°
2026-05-05 01:39 35.39558 139.85632 10637 ft 308 kts 233°
2026-05-05 01:39 35.38080 139.83655 11083 ft 322 kts 233°
2026-05-05 01:39 35.36520 139.81581 11481 ft 338 kts 233°
2026-05-05 01:40 35.34905 139.79439 11867 ft 352 kts 233°
2026-05-05 01:40 35.33210 139.77190 12251 ft 367 kts 233°
2026-05-05 01:40 35.31430 139.74863 12800 ft 377 kts 231°
2026-05-05 01:40 35.29539 139.72649 13580 ft 381 kts 229°
2026-05-05 01:41 35.27531 139.70511 14298 ft 387 kts 227°
2026-05-05 01:41 35.25481 139.68422 15129 ft 389 kts 226°
2026-05-05 01:41 35.23397 139.66319 16036 ft 388 kts 226°
2026-05-05 01:41 35.21318 139.64210 16812 ft 389 kts 226°
2026-05-05 01:42 35.19245 139.62087 17564 ft 391 kts 226°
2026-05-05 01:42 35.17166 139.59938 18254 ft 394 kts 226°
2026-05-05 01:42 35.15082 139.57774 19103 ft 392 kts 227°
2026-05-05 01:42 35.13021 139.55635 19961 ft 389 kts 227°
2026-05-05 01:43 35.11075 139.53421 20740 ft 383 kts 232°
2026-05-05 01:43 35.09374 139.50940 21418 ft 378 kts 240°
2026-05-05 01:43 35.08030 139.48236 22144 ft 373 kts 247°
2026-05-05 01:43 35.06967 139.45386 22857 ft 369 kts 251°
2026-05-05 01:44 35.06140 139.42438 23447 ft 368 kts 256°
2026-05-05 01:44 35.05541 139.39447 24079 ft 367 kts 259°
2026-05-05 01:44 35.05033 139.36375 24601 ft 369 kts 260°
2026-05-05 01:44 35.04565 139.33350 25278 ft 367 kts 259°
2026-05-05 01:45 35.04088 139.30281 25874 ft 367 kts 258°
2026-05-05 01:45 35.03603 139.27239 26529 ft 366 kts 258°
2026-05-05 01:45 35.03108 139.24208 27017 ft 367 kts 258°
2026-05-05 01:45 35.02615 139.21214 27713 ft 363 kts 257°
2026-05-05 01:46 35.02114 139.18207 28210 ft 363 kts 256°
2026-05-05 01:46 35.01609 139.15189 28674 ft 364 kts 256°
2026-05-05 01:46 35.01107 139.12199 29278 ft 361 kts 256°
2026-05-05 01:46 35.00610 139.09251 30115 ft 352 kts 256°
2026-05-05 01:47 35.00124 139.06386 30910 ft 344 kts 255°
2026-05-05 01:47 34.99641 139.03548 31471 ft 341 kts 256°
2026-05-05 01:47 34.99159 139.00711 31862 ft 342 kts 255°
2026-05-05 01:47 34.98738 138.97894 32238 ft 343 kts 257°
2026-05-05 01:48 34.98486 138.94981 32580 ft 346 kts 260°
2026-05-05 01:48 34.98343 138.92073 33022 ft 345 kts 261°
2026-05-05 01:48 34.98231 138.89174 33500 ft 342 kts 261°
2026-05-05 01:48 34.98110 138.86273 33958 ft 339 kts 261°
2026-05-05 01:49 34.97981 138.83432 34329 ft 339 kts 261°
2026-05-05 01:49 34.97837 138.80565 34611 ft 340 kts 261°
2026-05-05 01:49 34.97680 138.77683 34936 ft 339 kts 261°
2026-05-05 01:49 34.97523 138.74774 35236 ft 340 kts 261°
2026-05-05 01:50 34.97376 138.71924 35511 ft 341 kts 261°
2026-05-05 01:50 34.97228 138.69035 35813 ft 340 kts 262°
2026-05-05 01:50 34.97078 138.66188 36123 ft 339 kts 261°
2026-05-05 01:50 34.96925 138.63316 36175 ft 343 kts 261°
2026-05-05 01:51 34.96620 138.57541 36173 ft 341 kts 261°
2026-05-05 01:51 34.96303 138.51827 36179 ft 340 kts 261°
2026-05-05 01:52 34.95983 138.46040 36175 ft 342 kts 261°
2026-05-05 01:52 34.95666 138.40289 36179 ft 342 kts 261°
2026-05-05 01:53 34.95338 138.34517 36180 ft 342 kts 261°
2026-05-05 01:53 34.95010 138.28744 36181 ft 344 kts 261°
2026-05-05 01:54 34.94674 138.22957 36182 ft 343 kts 260°
2026-05-05 01:54 34.94330 138.17149 36182 ft 343 kts 261°
2026-05-05 01:55 34.93997 138.11365 36179 ft 344 kts 262°
2026-05-05 01:55 34.93669 138.05571 36183 ft 345 kts 262°
2026-05-05 01:56 34.93325 137.99739 36180 ft 345 kts 261°
2026-05-05 01:56 34.92975 137.93950 36182 ft 345 kts 261°
2026-05-05 01:57 34.92625 137.88101 36178 ft 346 kts 261°
2026-05-05 01:57 34.92273 137.82281 36179 ft 346 kts 261°
2026-05-05 01:58 34.91916 137.76451 36176 ft 346 kts 261°
2026-05-05 01:58 34.91737 137.73518 35929 ft 346 kts 261°
2026-05-05 01:58 34.91540 137.70615 36252 ft 347 kts 260°
2026-05-05 01:59 34.90596 137.64926 36181 ft 343 kts 251°
2026-05-05 01:59 34.89003 137.59459 36178 ft 343 kts 249°
2026-05-05 02:00 34.87333 137.54042 36178 ft 343 kts 249°
2026-05-05 02:00 34.85681 137.48612 36178 ft 342 kts 249°
2026-05-05 02:01 34.84079 137.43170 36179 ft 345 kts 250°
2026-05-05 02:01 34.82527 137.37714 36177 ft 343 kts 251°
2026-05-05 02:02 34.80964 137.32216 36176 ft 344 kts 250°
2026-05-05 02:02 34.79393 137.26747 36177 ft 344 kts 250°
2026-05-05 02:03 34.77822 137.21268 36177 ft 343 kts 250°
2026-05-05 02:03 34.76251 137.15825 36178 ft 344 kts 250°
2026-05-05 02:04 34.74662 137.10324 36178 ft 344 kts 250°
2026-05-05 02:04 34.73094 137.04878 36180 ft 344 kts 250°
2026-05-05 02:05 34.71484 136.99391 36181 ft 344 kts 249°
2026-05-05 02:05 34.69396 136.94163 36178 ft 346 kts 239°
2026-05-05 02:06 34.66510 136.89522 36183 ft 349 kts 235°
2026-05-05 02:06 34.63472 136.84950 36186 ft 348 kts 235°
2026-05-05 02:07 34.60463 136.80342 36189 ft 349 kts 236°
2026-05-05 02:07 34.57463 136.75725 36182 ft 348 kts 236°
2026-05-05 02:08 34.54460 136.71098 36182 ft 348 kts 236°
2026-05-05 02:08 34.51465 136.66483 36179 ft 348 kts 236°
2026-05-05 02:09 34.48491 136.61902 36176 ft 349 kts 236°
2026-05-05 02:09 34.45478 136.57272 36176 ft 350 kts 236°
2026-05-05 02:10 34.42485 136.52693 36173 ft 347 kts 236°
2026-05-05 02:10 34.39485 136.48111 36173 ft 349 kts 236°
2026-05-05 02:11 34.36479 136.43497 36171 ft 348 kts 236°
2026-05-05 02:11 34.33481 136.38921 36172 ft 347 kts 236°
2026-05-05 02:12 34.28990 136.32083 36176 ft 349 kts 236°
2026-05-05 02:13 34.25970 136.27495 36173 ft 346 kts 235°
2026-05-05 02:13 34.22996 136.22975 36176 ft 346 kts 235°
2026-05-05 02:14 34.20006 136.18422 36178 ft 347 kts 236°
2026-05-05 02:14 34.17005 136.13870 36176 ft 346 kts 236°
2026-05-05 02:15 34.14001 136.09319 36176 ft 345 kts 236°
2026-05-05 02:15 34.11021 136.04810 36174 ft 345 kts 236°
2026-05-05 02:16 34.08013 136.00269 36169 ft 347 kts 235°
2026-05-05 02:16 34.05014 135.95741 36164 ft 345 kts 235°
2026-05-05 02:17 34.02012 135.91237 36161 ft 347 kts 236°
2026-05-05 02:17 33.99000 135.86703 36160 ft 346 kts 236°
2026-05-05 02:18 33.96027 135.82216 36159 ft 344 kts 236°
2026-05-05 02:18 33.93021 135.77696 36158 ft 346 kts 235°
2026-05-05 02:19 33.90030 135.73216 36161 ft 344 kts 235°
2026-05-05 02:19 33.87018 135.68716 36161 ft 345 kts 235°
2026-05-05 02:20 33.84004 135.64201 36170 ft 345 kts 236°
2026-05-05 02:20 33.80988 135.59706 36177 ft 347 kts 235°
2026-05-05 02:21 33.77979 135.55222 36183 ft 346 kts 236°
2026-05-05 02:21 33.74954 135.50699 36183 ft 348 kts 236°
2026-05-05 02:22 33.71939 135.46207 36183 ft 348 kts 236°
2026-05-05 02:22 33.68908 135.41698 36185 ft 348 kts 236°
2026-05-05 02:23 33.65852 135.37167 36186 ft 348 kts 235°
2026-05-05 02:23 33.62826 135.32686 36185 ft 349 kts 236°
2026-05-05 02:24 33.59769 135.28165 36185 ft 348 kts 235°
2026-05-05 02:24 33.56721 135.23665 36188 ft 349 kts 235°
2026-05-05 02:25 33.53662 135.19136 36187 ft 349 kts 235°
2026-05-05 02:25 33.50628 135.14653 36186 ft 349 kts 235°
2026-05-05 02:26 33.47573 135.10144 36184 ft 350 kts 235°
2026-05-05 02:26 33.44493 135.05617 36184 ft 349 kts 235°
2026-05-05 02:27 33.41504 135.01068 36182 ft 348 kts 239°
2026-05-05 02:27 33.39180 134.96065 36181 ft 346 kts 246°
2026-05-05 02:28 33.37329 134.90771 36179 ft 346 kts 248°
2026-05-05 02:28 33.35522 134.85434 36178 ft 346 kts 248°
2026-05-05 02:29 33.33688 134.80127 36173 ft 346 kts 248°
2026-05-05 02:29 33.31829 134.74805 36176 ft 346 kts 248°
2026-05-05 02:30 33.29985 134.69516 36174 ft 347 kts 248°
2026-05-05 02:30 33.28129 134.64208 36172 ft 347 kts 248°
2026-05-05 02:31 33.26282 134.58913 36171 ft 346 kts 248°
2026-05-05 02:31 33.24420 134.53609 36169 ft 348 kts 248°
2026-05-05 02:32 33.22560 134.48323 36170 ft 348 kts 247°
2026-05-05 02:32 33.20678 134.43015 36169 ft 347 kts 248°
2026-05-05 02:33 33.18814 134.37720 36169 ft 348 kts 248°
2026-05-05 02:33 33.16946 134.32410 36169 ft 348 kts 248°
2026-05-05 02:34 33.15064 134.27089 36166 ft 348 kts 247°
2026-05-05 02:34 33.13180 134.21791 36168 ft 349 kts 247°
2026-05-05 02:35 33.11290 134.16464 36171 ft 348 kts 247°
2026-05-05 02:35 33.09410 134.11163 36170 ft 349 kts 248°
2026-05-05 02:36 33.07534 134.05885 36171 ft 348 kts 248°
2026-05-05 02:36 33.05642 134.00572 36171 ft 349 kts 248°
2026-05-05 02:37 33.03744 133.95259 36168 ft 349 kts 247°
2026-05-05 02:37 33.01848 133.89966 36171 ft 348 kts 247°
2026-05-05 02:38 32.99946 133.84663 36173 ft 348 kts 248°
2026-05-05 02:38 32.98053 133.79388 36172 ft 348 kts 248°
2026-05-05 02:39 32.96145 133.74089 36172 ft 348 kts 248°
2026-05-05 02:39 32.94252 133.68834 36173 ft 348 kts 247°
2026-05-05 02:40 32.92349 133.63554 36172 ft 348 kts 248°
2026-05-05 02:40 32.90442 133.58270 36174 ft 349 kts 248°
2026-05-05 02:41 32.88781 133.52832 36174 ft 349 kts 253°
2026-05-05 02:41 32.87464 133.47321 36172 ft 349 kts 253°
2026-05-05 02:42 32.86140 133.41768 36174 ft 348 kts 253°
2026-05-05 02:42 32.84784 133.36273 36174 ft 349 kts 253°
2026-05-05 02:43 32.83409 133.30749 36173 ft 349 kts 252°
2026-05-05 02:43 32.82029 133.25230 36173 ft 349 kts 252°
2026-05-05 02:44 32.80656 133.19762 36174 ft 347 kts 252°
2026-05-05 02:44 32.79256 133.14227 36178 ft 349 kts 252°
2026-05-05 02:45 32.77877 133.08746 36179 ft 348 kts 252°
2026-05-05 02:45 32.76470 133.03235 36180 ft 349 kts 251°
2026-05-05 02:46 32.74392 132.98077 36181 ft 351 kts 238°
2026-05-05 02:46 32.71301 132.93573 36179 ft 354 kts 233°
2026-05-05 02:47 32.68028 132.89221 36177 ft 354 kts 233°
2026-05-05 02:47 32.64778 132.84837 36176 ft 354 kts 234°
2026-05-05 02:48 32.61563 132.80460 36172 ft 353 kts 233°
2026-05-05 02:48 32.59960 132.78281 35937 ft 349 kts 233°
2026-05-05 02:48 32.58384 132.76137 35499 ft 344 kts 233°
2026-05-05 02:48 32.56824 132.74013 34886 ft 343 kts 233°
2026-05-05 02:49 32.55258 132.71872 34169 ft 343 kts 234°
2026-05-05 02:49 32.53715 132.69759 33451 ft 344 kts 233°
2026-05-05 02:49 32.52149 132.67622 32697 ft 345 kts 233°
2026-05-05 02:49 32.50576 132.65485 31930 ft 346 kts 233°
2026-05-05 02:50 32.49007 132.63351 31145 ft 348 kts 233°
2026-05-05 02:50 32.47418 132.61189 30335 ft 350 kts 233°
2026-05-05 02:50 32.45822 132.59021 29499 ft 352 kts 234°
2026-05-05 02:50 32.44209 132.56831 28659 ft 355 kts 234°
2026-05-05 02:51 32.42591 132.54634 27778 ft 360 kts 233°
2026-05-05 02:51 32.40947 132.52406 26858 ft 365 kts 233°
2026-05-05 02:51 32.39265 132.50127 25878 ft 371 kts 233°
2026-05-05 02:51 32.37588 132.47855 24869 ft 377 kts 232°
2026-05-05 02:52 32.35850 132.45502 23883 ft 382 kts 232°
2026-05-05 02:52 32.34093 132.43127 23238 ft 396 kts 232°
2026-05-05 02:52 32.32243 132.40624 22509 ft 411 kts 232°
2026-05-05 02:52 32.30354 132.38071 21694 ft 412 kts 231°
2026-05-05 02:53 32.28483 132.35550 20879 ft 411 kts 231°
2026-05-05 02:53 32.26600 132.33015 20055 ft 411 kts 231°
2026-05-05 02:53 32.24723 132.30490 19229 ft 410 kts 230°
2026-05-05 02:53 32.22850 132.27969 18407 ft 410 kts 230°
2026-05-05 02:54 32.20978 132.25449 17562 ft 410 kts 230°
2026-05-05 02:54 32.19119 132.22946 16735 ft 410 kts 230°
2026-05-05 02:54 32.17233 132.20407 15891 ft 410 kts 230°
2026-05-05 02:54 32.15383 132.17918 15110 ft 407 kts 229°
2026-05-05 02:55 32.13535 132.15433 14286 ft 397 kts 229°
2026-05-05 02:55 32.11740 132.13022 13461 ft 391 kts 229°
2026-05-05 02:55 32.09972 132.10649 12646 ft 382 kts 229°
2026-05-05 02:55 32.08221 132.08298 11865 ft 381 kts 229°
2026-05-05 02:56 32.06500 132.05988 11340 ft 373 kts 229°
2026-05-05 02:56 32.04819 132.03735 11086 ft 358 kts 229°
2026-05-05 02:56 32.03228 132.01604 10940 ft 342 kts 229°
2026-05-05 02:56 32.01675 131.99528 10771 ft 328 kts 229°
2026-05-05 02:57 32.00212 131.97572 10606 ft 315 kts 229°
2026-05-05 02:57 31.98785 131.95666 10440 ft 304 kts 228°
2026-05-05 02:57 31.97405 131.93822 10274 ft 293 kts 228°
2026-05-05 02:57 31.96083 131.92058 10117 ft 283 kts 228°
2026-05-05 02:58 31.94799 131.90346 9782 ft 281 kts 228°
2026-05-05 02:58 31.93512 131.88632 9375 ft 281 kts 228°
2026-05-05 02:58 31.92219 131.86906 8997 ft 280 kts 228°
2026-05-05 02:58 31.90991 131.85136 8611 ft 280 kts 236°
2026-05-05 02:59 31.90186 131.83067 8230 ft 280 kts 257°
2026-05-05 02:59 31.89971 131.80800 7874 ft 278 kts 267°
2026-05-05 02:59 31.89919 131.78531 7487 ft 277 kts 268°
2026-05-05 02:59 31.89857 131.76294 7166 ft 274 kts 266°
2026-05-05 03:00 31.89758 131.74110 7031 ft 257 kts 265°
2026-05-05 03:00 31.89644 131.72075 6965 ft 244 kts 265°
2026-05-05 03:00 31.89535 131.70126 6882 ft 236 kts 268°
2026-05-05 03:00 31.89684 131.68216 6700 ft 237 kts 284°
2026-05-05 03:01 31.90219 131.66419 6419 ft 231 kts 291°
2026-05-05 03:01 31.90819 131.64691 6165 ft 221 kts 291°
2026-05-05 03:01 31.91362 131.63036 5924 ft 213 kts 289°
2026-05-05 03:01 31.91860 131.61420 5683 ft 211 kts 289°
2026-05-05 03:02 31.92350 131.59801 5443 ft 208 kts 289°
2026-05-05 03:02 31.92834 131.58199 5207 ft 207 kts 289°
2026-05-05 03:02 31.93316 131.56602 4970 ft 208 kts 289°
2026-05-05 03:02 31.93795 131.55019 4746 ft 207 kts 289°
2026-05-05 03:03 31.94275 131.53433 4615 ft 206 kts 289°
2026-05-05 03:03 31.94758 131.51834 4467 ft 207 kts 289°
2026-05-05 03:03 31.95227 131.50230 4311 ft 206 kts 285°
2026-05-05 03:03 31.95403 131.48572 4144 ft 204 kts 266°
2026-05-05 03:04 31.95245 131.46925 3956 ft 199 kts 261°
2026-05-05 03:04 31.95076 131.45337 3736 ft 193 kts 263°
2026-05-05 03:04 31.94951 131.43800 3561 ft 186 kts 264°
2026-05-05 03:04 31.94851 131.42323 3473 ft 175 kts 265°
2026-05-05 03:05 31.94753 131.40903 3202 ft 177 kts 264°
2026-05-05 03:05 31.94646 131.39438 2892 ft 177 kts 264°
2026-05-05 03:05 31.94484 131.38054 2698 ft 170 kts 253°
2026-05-05 03:05 31.93958 131.36835 2454 ft 169 kts 228°
2026-05-05 03:06 31.93121 131.35887 2254 ft 167 kts 215°
2026-05-05 03:06 31.92143 131.35255 2052 ft 152 kts 195°
2026-05-05 03:06 31.91128 131.35089 1827 ft 146 kts 178°
2026-05-05 03:06 31.90116 131.35173 1635 ft 145 kts 165°
2026-05-05 03:07 31.89193 131.35620 1451 ft 143 kts 145°
2026-05-05 03:07 31.88412 131.36350 1272 ft 144 kts 134°
2026-05-05 03:07 31.87793 131.37279 1071 ft 144 kts 116°
2026-05-05 03:07 31.87478 131.38362 919 ft 143 kts 99°
2026-05-05 03:08 31.87403 131.39525 740 ft 142 kts 89°
2026-05-05 03:08 31.87462 131.40704 504 ft 145 kts 86°
2026-05-05 03:08 31.87515 131.41872 341 ft 143 kts 86°
2026-05-05 03:08 31.87583 131.43019 131 ft 136 kts 85°
2026-05-05 03:09 31.87655 131.44073 31 ft 109 kts 86°
2026-05-05 03:09 31.87696 131.44681 31 ft 44 kts 86°
2026-05-05 03:09 31.87717 131.44978 31 ft 29 kts 85°
2026-05-05 03:09 31.87703 131.45065 31 ft 6 kts 151°
2026-05-05 03:10 31.87663 131.45077 31 ft 5 kts 175°
2026-05-05 03:10 31.87628 131.45079 31 ft 4 kts 177°
2026-05-05 03:10 31.87587 131.45076 31 ft 8 kts 196°
2026-05-05 03:10 31.87559 131.45024 31 ft 7 kts 260°
2026-05-05 03:11 31.87553 131.44966 31 ft 6 kts 264°
2026-05-05 03:11 31.87549 131.44914 31 ft 7 kts 265°
2026-05-05 03:11 31.87541 131.44823 31 ft 16 kts 265°
2026-05-05 03:11 31.87530 131.44661 31 ft 20 kts 265°
2026-05-05 03:12 31.87518 131.44498 31 ft 19 kts 266°
2026-05-05 03:12 31.87508 131.44374 31 ft 6 kts 251°
2026-05-05 03:12 31.87467 131.44351 31 ft 6 kts 183°
2026-05-05 03:12 31.87425 131.44356 31 ft 5 kts 175°
2026-05-05 03:13 31.87388 131.44357 31 ft 4 kts 177°
2026-05-05 03:13 31.87380 131.44359 31 ft 0 kts 177°